• In Hungary
  • List of Countries
  • For 7 days
  • Water Temperature
  • Satellite Maps
  • Weather Map
  • News
  • Weather Widgets
  • user-avatar
    Login

    Hourly Weather Innsbruck

    Today, 27 May, Sunday

    Time Temperature Precipitation Wind Pressure Humidity
    00:00 +7°C° 0.2 mm 1 mps 600 mmHg 89%
    01:00 +7°C° 0.2 mm 1 mps 600 mmHg 88%
    02:00 +7°C° 0 mm 1 mps 599 mmHg 88%
    03:00 +7°C° 0 mm 1 mps 599 mmHg 87%
    04:00 +7°C° 0 mm 1 mps 599 mmHg 86%
    05:00 +8°C° 0 mm 1 mps 600 mmHg 82%
    06:00 +10°C° 0 mm 1 mps 600 mmHg 79%
    07:00 +11°C° 0 mm 1 mps 601 mmHg 75%
    08:00 +13°C° 0.1 mm 1 mps 602 mmHg 66%
    09:00 +15°C° 0.1 mm 1 mps 602 mmHg 57%
    10:00 +18°C° 0.1 mm 1 mps 603 mmHg 47%
    11:00 +18°C° 0.3 mm 1 mps 603 mmHg 45%
    12:00 +19°C° 0.3 mm 1 mps 603 mmHg 43%
    13:00 +19°C° 0.3 mm 1 mps 603 mmHg 41%
    14:00 +19°C° 0.5 mm 1 mps 603 mmHg 44%
    15:00 +18°C° 0.5 mm 1 mps 602 mmHg 47%
    16:00 +18°C° 0.5 mm 1 mps 602 mmHg 49%
    17:00 +15°C° 1.4 mm 1 mps 601 mmHg 60%
    18:00 +14°C° 1.4 mm 1 mps 601 mmHg 71%
    19:00 +11°C° 1.4 mm 0 mps 600 mmHg 81%
    20:00 +11°C° 0.4 mm 1 mps 600 mmHg 82%
    21:00 +10°C° 0.4 mm 1 mps 600 mmHg 83%
    22:00 +9°C° 0.4 mm 1 mps 600 mmHg 84%
    23:00 +8°C° 0.1 mm 2 mps 599 mmHg 84%

    Tomorrow, 28 May, Monday

    Time Temperature Precipitation Wind Pressure Humidity
    00:00 +7°C° 0.1 mm 2 mps 599 mmHg 85%
    01:00 +6°C° 0.1 mm 2 mps 599 mmHg 85%
    02:00 +6°C° 0 mm 2 mps 599 mmHg 84%
    03:00 +6°C° 0 mm 2 mps 598 mmHg 84%
    04:00 +6°C° 0 mm 2 mps 598 mmHg 83%
    05:00 +7°C° 0 mm 2 mps 599 mmHg 78%
    06:00 +9°C° 0 mm 2 mps 600 mmHg 74%
    07:00 +11°C° 0 mm 1 mps 600 mmHg 69%
    08:00 +14°C° 0 mm 1 mps 601 mmHg 60%
    09:00 +16°C° 0 mm 1 mps 602 mmHg 52%
    10:00 +19°C° 0 mm 1 mps 603 mmHg 43%
    11:00 +18°C° 0.1 mm 2 mps 603 mmHg 42%
    12:00 +19°C° 0.1 mm 2 mps 603 mmHg 40%
    13:00 +20°C° 0.1 mm 2 mps 603 mmHg 38%
    14:00 +19°C° 0.1 mm 2 mps 602 mmHg 41%
    15:00 +18°C° 0.1 mm 2 mps 602 mmHg 44%
    16:00 +18°C° 0.1 mm 2 mps 601 mmHg 48%
    17:00 +16°C° 0.4 mm 2 mps 601 mmHg 57%
    18:00 +15°C° 0.4 mm 2 mps 600 mmHg 66%
    19:00 +14°C° 0.4 mm 2 mps 600 mmHg 76%
    20:00 +12°C° 0.1 mm 2 mps 599 mmHg 80%
    21:00 +10°C° 0.1 mm 2 mps 599 mmHg 84%
    22:00 +8°C° 0.1 mm 2 mps 598 mmHg 89%
    23:00 +8°C° 0 mm 2 mps 598 mmHg 89%

    Day after tomorrow, 29 May, Tuesday

    Time Temperature Precipitation Wind Pressure Humidity
    00:00 +7°C° 0 mm 2 mps 598 mmHg 89%
    01:00 +7°C° 0 mm 3 mps 598 mmHg 89%
    02:00 +7°C° 0 mm 3 mps 598 mmHg 89%
    03:00 +7°C° 0 mm 2 mps 597 mmHg 89%
    04:00 +7°C° 0 mm 2 mps 597 mmHg 89%
    05:00 +8°C° 0 mm 2 mps 598 mmHg 84%
    06:00 +9°C° 0 mm 2 mps 598 mmHg 80%
    07:00 +12°C° 0 mm 2 mps 599 mmHg 75%
    08:00 +13°C° 0 mm 2 mps 599 mmHg 68%
    09:00 +15°C° 0 mm 2 mps 600 mmHg 61%
    10:00 +17°C° 0 mm 2 mps 601 mmHg 54%
    11:00 +17°C° 1 mm 2 mps 601 mmHg 56%
    12:00 +17°C° 1 mm 2 mps 600 mmHg 59%
    13:00 +17°C° 1 mm 2 mps 600 mmHg 61%
    14:00 +16°C° 1.8 mm 2 mps 600 mmHg 65%
    15:00 +15°C° 1.8 mm 2 mps 599 mmHg 68%
    16:00 +15°C° 1.8 mm 2 mps 599 mmHg 72%
    17:00 +14°C° 0.9 mm 1 mps 598 mmHg 77%
    18:00 +13°C° 0.9 mm 1 mps 598 mmHg 81%
    19:00 +13°C° 0.9 mm 1 mps 597 mmHg 86%
    20:00 +11°C° 1.1 mm 1 mps 597 mmHg 88%
    21:00 +10°C° 1.1 mm 1 mps 597 mmHg 91%
    22:00 +8°C° 1.1 mm 1 mps 596 mmHg 94%
    23:00 +8°C° 0.5 mm 1 mps 596 mmHg 94%

    30 May, Wednesday

    Time Temperature Precipitation Wind Pressure Humidity
    00:00 +7°C° 0.5 mm 1 mps 596 mmHg 94%
    01:00 +6°C° 0.5 mm 2 mps 595 mmHg 94%
    02:00 +6°C° 0.1 mm 2 mps 595 mmHg 93%
    03:00 +6°C° 0.1 mm 1 mps 595 mmHg 93%
    04:00 +6°C° 0.1 mm 1 mps 594 mmHg 92%
    05:00 +8°C° 0 mm 1 mps 595 mmHg 87%
    06:00 +9°C° 0 mm 1 mps 596 mmHg 81%
    07:00 +11°C° 0 mm 1 mps 597 mmHg 76%
    08:00 +13°C° 0 mm 1 mps 598 mmHg 66%
    09:00 +15°C° 0 mm 1 mps 598 mmHg 56%
    10:00 +18°C° 0 mm 1 mps 599 mmHg 46%
    11:00 +17°C° 0.4 mm 2 mps 599 mmHg 48%
    12:00 +18°C° 0.4 mm 2 mps 599 mmHg 49%
    13:00 +18°C° 0.4 mm 2 mps 599 mmHg 50%
    14:00 +17°C° 1.2 mm 2 mps 598 mmHg 54%
    15:00 +17°C° 1.2 mm 2 mps 598 mmHg 58%
    16:00 +16°C° 1.2 mm 2 mps 598 mmHg 62%
    17:00 +15°C° 2.1 mm 2 mps 597 mmHg 69%
    18:00 +14°C° 2.1 mm 1 mps 597 mmHg 76%
    19:00 +13°C° 2.1 mm 1 mps 597 mmHg 82%
    20:00 +11°C° 1 mm 1 mps 596 mmHg 86%
    21:00 +10°C° 1 mm 1 mps 596 mmHg 89%
    22:00 +9°C° 1 mm 1 mps 596 mmHg 92%
    23:00 +8°C° 0.3 mm 1 mps 595 mmHg 92%

    31 May, Thursday

    Time Temperature Precipitation Wind Pressure Humidity
    00:00 +8°C° 0.3 mm 1 mps 595 mmHg 93%
    01:00 +8°C° 0.3 mm 1 mps 595 mmHg 93%
    02:00 +7°C° 0.3 mm 1 mps 595 mmHg 93%
    03:00 +7°C° 0.3 mm 1 mps 595 mmHg 93%
    04:00 +6°C° 0.3 mm 1 mps 594 mmHg 93%
    05:00 +8°C° 0.1 mm 1 mps 595 mmHg 89%
    06:00 +10°C° 0.1 mm 1 mps 596 mmHg 85%
    07:00 +11°C° 0.1 mm 1 mps 597 mmHg 81%
    08:00 +13°C° 0.3 mm 1 mps 597 mmHg 75%
    09:00 +14°C° 0.3 mm 1 mps 598 mmHg 70%
    10:00 +15°C° 0.3 mm 1 mps 598 mmHg 64%
    11:00 +16°C° 1.1 mm 1 mps 598 mmHg 63%
    12:00 +16°C° 1.1 mm 1 mps 598 mmHg 62%
    13:00 +18°C° 1.1 mm 1 mps 598 mmHg 61%
    14:00 +16°C° 1.7 mm 1 mps 598 mmHg 63%
    15:00 +16°C° 1.7 mm 1 mps 598 mmHg 66%
    16:00 +15°C° 1.7 mm 1 mps 598 mmHg 69%
    17:00 +15°C° 1.3 mm 1 mps 597 mmHg 74%
    18:00 +14°C° 1.3 mm 1 mps 597 mmHg 80%
    19:00 +12°C° 1.3 mm 0 mps 597 mmHg 85%
    20:00 +10°C° 1.6 mm 0 mps 597 mmHg 88%
    21:00 +9°C° 1.6 mm 0 mps 596 mmHg 90%
    22:00 +8°C° 1.6 mm 0 mps 596 mmHg 93%
    23:00 +9°C° 1.4 mm 1 mps 596 mmHg 94%

    1 June, Friday

    Time Temperature Precipitation Wind Pressure Humidity
    00:00 +8°C° 1.4 mm 1 mps 596 mmHg 95%
    01:00 +8°C° 1.4 mm 1 mps 596 mmHg 96%
    02:00 +8°C° 0.9 mm 1 mps 596 mmHg 96%
    03:00 +8°C° 0.9 mm 1 mps 596 mmHg 96%
    04:00 +7°C° 0.9 mm 1 mps 596 mmHg 97%
    05:00 +8°C° 0.3 mm 1 mps 597 mmHg 95%
    06:00 +9°C° 0.3 mm 1 mps 597 mmHg 93%
    07:00 +10°C° 0.3 mm 1 mps 598 mmHg 90%
    08:00 +11°C° 0.3 mm 1 mps 598 mmHg 87%
    09:00 +11°C° 0.3 mm 1 mps 599 mmHg 84%
    10:00 +12°C° 0.3 mm 1 mps 599 mmHg 81%
    11:00 +13°C° 0.6 mm 1 mps 599 mmHg 77%
    12:00 +14°C° 0.6 mm 2 mps 600 mmHg 74%
    13:00 +15°C° 0.6 mm 2 mps 600 mmHg 70%
    14:00 +14°C° 1.4 mm 2 mps 600 mmHg 71%
    15:00 +14°C° 1.4 mm 2 mps 600 mmHg 72%
    16:00 +14°C° 1.4 mm 2 mps 599 mmHg 73%
    17:00 +13°C° 1.2 mm 1 mps 599 mmHg 78%
    18:00 +12°C° 1.2 mm 1 mps 599 mmHg 84%
    19:00 +10°C° 1.2 mm 0 mps 599 mmHg 90%
    20:00 +10°C° 1 mm 0 mps 599 mmHg 91%
    21:00 +9°C° 1 mm 0 mps 599 mmHg 92%
    22:00 +8°C° 1 mm 0 mps 599 mmHg 93%
    23:00 +9°C° 1 mm 1 mps 598 mmHg 93%
    Show more